User: anonymous   Login
Location: Unspecified
(0.0000°N, 0.0000°E)
Time: 15:12:55
(UTC+00:00)
Language:

STPSAT 2 (USA 217) - Orbit

View from above orbital plane
View from above orbital plane
View from above satellite
View from above satellite

Ground track
Ground track

The orbit data is extracted from the following two-line orbital elements,

1 37222U 10062A   18048.85109055 0.00000080  00000-0  10959-4 0    08
2 37222  71.9721  57.9435 0016000  42.4752 317.5248 14.78343073    09
Epoch (UTC): 17 February 2018 20:25:34
Eccentricity: 0.0016000
inclination: 71.9721°
perigee height: 623 km
apogee height: 646 km
right ascension of ascending node: 57.9435°
argument of perigee: 42.4752°
revolutions per day: 14.78343073
mean anomaly at epoch: 317.5248°
orbit number at epoch: 0

The dashed part of the orbit path shows where the satellite is in the earth's shadow,  

DLR